Regional Weather Roundup
Issued by NWS

Home | Current Version | Previous Version | Graphics & Text | Print | Product List | Glossary On
Versions: 1 2 3 4 5 6 7 8 9 10 11 12 13 14 15 16 17 18 19 20 21 22 23 24 25 26 27 28 29 30 31 32 33 34 35 36 37 38 39 40 41 42 43 44 45 46 47 48 49 50
140
ASUS43 KOAX 232202
RWRNE

WEATHER ROUNDUP FOR NEBRASKA
NATIONAL WEATHER SERVICE OMAHA NE
500 PM CDT SUN JUL 23 2017

NOTES: SATELLITE DATA IS BEING USED TO AUGMENT CLOUD COVER ABOVE
       12000 FEET.
       "FAIR" INDICATES FEW OR NO CLOUDS BELOW 12,000 FEET WITH NO
       SIGNIFICANT WEATHER AND/OR OBSTRUCTIONS TO VISIBILITY.


NEZ001>004-019>022-054>056-232300-
NEBRASKA PANHANDLE

CITY           SKY/WX    TMP DP  RH WIND       PRES   REMARKS
SCOTTSBLUFF    SUNNY     96  46  18 E12       30.03F HX  92
ALLIANCE       SUNNY     95  41  15 VRB5      30.04F HX  91
CHADRON        SUNNY     95  50  21 E6        29.98F HX  92
GORDON         FAIR      91  53  28 E10       30.03F
KIMBALL        SUNNY     92  43  18 CALM      30.12F
SIDNEY         SUNNY     94  39  14 MISG      30.09F HX  90
$$

NEZ057>060-069>072-079>082-232300-
SOUTHWEST NEBRASKA

CITY           SKY/WX    TMP DP  RH WIND       PRES   REMARKS
NORTH PLATTE   SUNNY     96  47  18 E5        30.00F HX  92
IMPERIAL       SUNNY     96  41  15 SE8       30.03F HX  92
LEXINGTON      SUNNY     88  64  44 E8        30.01F
MCCOOK         SUNNY     96  52  22 E6        30.00F HX  93
OGALLALA       SUNNY     96  44  16 S9        30.03F HX  92
$$

NEZ005>010-023>029-035>040-094-232300-
NORTH CENTRAL NEBRASKA

CITY           SKY/WX    TMP DP  RH WIND       PRES   REMARKS
VALENTINE      SUNNY     94  43  17 N3        30.01F HX  90
AINSWORTH      SUNNY     89  53  29 E6        30.03F
BROKEN BOW     SUNNY     91  56  30 E7        30.02F
O`NEILL        SUNNY     84  60  43 N3        30.02F
ORD            SUNNY     90  53  28 NE8       30.00S
THEDFORD       SUNNY     93  52  24 SE7       30.03F HX  90
$$

NEZ041-046>049-061>064-073>077-083>087-232300-
SOUTH CENTRAL NEBRASKA

CITY           SKY/WX    TMP DP  RH WIND       PRES   REMARKS
GRAND ISLAND   FAIR      89  59  36 E13       30.00F
AURORA         FAIR      85  67  55 NE10      29.99F
HASTINGS       FAIR      86  67  52 NE10      30.00F
HEBRON         FAIR      91  68  46 N7        29.95F HX  95
HOLDREGE       FAIR      87  64  46 E5        30.01F HAZE
KEARNEY        FAIR      87  64  46 E8        30.01F
YORK           FAIR      84  66  54 NE8       29.98F
$$

NEZ011>018-030>034-042>045-232300-
NORTHEAST NEBRASKA

CITY           SKY/WX    TMP DP  RH WIND       PRES   REMARKS
NORFOLK        FAIR      87  54  32 N10G17    29.99S
ALBION         FAIR      87  61  41 NE6       30.01S
BLAIR          FAIR      86  58  38 N14       29.96S
COLUMBUS       FAIR      88  62  41 NE9       29.98F
FREMONT        FAIR      86  58  38 N9        29.97F
TEKAMAH        FAIR      86  59  39 N12       29.95F
WAYNE          FAIR      85  58  39 N13       29.98S
$$

NEZ050>053-065>068-078-088>093-232300-
SOUTHEAST NEBRASKA

CITY           SKY/WX    TMP DP  RH WIND       PRES   REMARKS
LINCOLN        FAIR      89  65  44 NE13      29.96S HX  91
OMAHA EPPLEY   FAIR      89  60  37 N12       29.94S
BEATRICE       FAIR      92  66  41 N8        29.94S HX  95
FALLS CITY     FAIR      90  73  57 N8        29.90F HX  98
NEBRASKA CITY  FAIR      87  72  59 N8        29.94S HX  94
PLATTSMOUTH    FAIR      86  62  43 N8        29.94S
$$

NEZ044-045-051>053-067-232300-
OMAHA AREA

CITY           SKY/WX    TMP DP  RH WIND       PRES   REMARKS
OMAHA EPPLEY   FAIR      89  60  37 N12       29.94S
BLAIR          FAIR      86  58  38 N14       29.96S
FREMONT        FAIR      86  58  38 N9        29.97F
MILLARD        FAIR      89  64  42 N7        29.95S HX  90
OFFUTT AFB     FAIR      88  60  38 N13       29.94S
PLATTSMOUTH    FAIR      86  62  43 N8        29.94S
WAHOO          FAIR      86  62  44 N9        29.96F
$$




USA.gov is the U.S. government's official web portal to all federal, state and local government web resources and services.